Regional Weather Roundup
Issued by NWS

Home | Current Version | Previous Version | Graphics & Text | Print | Product List | Glossary On
Versions: 1 2 3 4 5 6 7 8 9 10 11 12 13 14 15 16 17 18 19 20 21 22 23 24 25 26 27 28 29 30 31 32 33 34 35 36 37 38 39 40 41 42 43 44 45 46 47 48 49 50
000
ASUS43 KDTX 312210
RWRMI
MICHIGAN HOURLY REGIONAL WEATHER ROUNDUP
NATIONAL WEATHER SERVICE DETROIT/PONTIAC MI
600 PM EDT TUE MAY 31 2016

NOTE: "FAIR" INDICATES FEW OR NO CLOUDS BELOW 12,000 FEET WITH NO
SIGNIFICANT WEATHER AND/OR OBSTRUCTION TO VISIBILITY.

MIZ047>049-052>055-059>063-066>070-074>076-081>083-312300-
SOUTHEAST LOWER MICHIGAN

CITY           SKY/WX    TMP DP  RH WIND       PRES   REMARKS
ADRIAN         CLOUDY    83  44  25 SE10      30.03S
ALMA           MOSUNNY   80  47  31 E3        30.03S
ANN ARBOR      MOSUNNY   79  47  32 SE10      30.03F
BAD AXE        SUNNY     64  48  56 NE9       30.10F
CARO           SUNNY     75  54  46 NE6       30.06F
DETROIT CITY   MOSUNNY   74  52  46 NE9       30.05S
DETROIT        PTSUNNY   80  44  27 E12       30.05R
FLINT          SUNNY     83  50  31 SE5       30.04S
GROSSE ILE     HAZE      79  46  31 NE6       30.03S VSB 1/4
HILLSDALE      SUNNY     82  31  15 E10       30.03S
HOWELL         MOSUNNY   82  45  27 E6        30.03S

CITY           SKY/WX    TMP DP  RH WIND       PRES   REMARKS
JACKSON        SUNNY     82  44  26 SE8       30.02F
LAMBERTVILLE   MOSUNNY   80  52  36 E7        30.04R
LANSING        MOSUNNY   80  51  36 E8        30.02F
LAPEER         FAIR      75  55  49 E8        30.06S
MASON          SUNNY     81  48  31 SE9       30.02F
MONROE         MOSUNNY   78  57  47 SE7       30.03S
MT. CLEMENS    PTSUNNY   73  56  56 E13       30.04F
PONTIAC        PTSUNNY   79  55  43 E10       30.04S
PORT HOPE        N/A     57  50  77 NE9       30.11S
PORT HURON     PTSUNNY   61  52  72 NE8       30.09S
TRI CITIES     SUNNY     74  57  55 NE16      30.06S
MIDLAND        FAIR      69  54  58 E15       30.06S
TROY           CLOUDY    80  47  30 E10       30.07R
SAGINAW HB       N/A     77  52  41 NE13      30.04F HAZE
$$
MIZ043>046-050>051-056>058-064>065-071>073-077>080-312300-
SOUTHWEST LOWER MICHIGAN

CITY           SKY/WX    TMP DP  RH WIND       PRES   REMARKS
BATTLE CREEK   MOSUNNY   79  46  31 E8        30.01F
BENTON HARBOR  MOSUNNY   82  50  32 E8        29.96S
BIG RAPIDS     SUNNY     79  50  36 S10       30.01S
COLDWATER      SUNNY     81  45  28 E10G17    30.00S
FREMONT        FAIR      82  47  29 SE8G16    29.99S
HOLLAND        SUNNY     86  46  24 SE14      29.98F
GRAND RAPIDS   PTSUNNY   85  48  27 SE14      29.99F
IONIA          FAIR      81  47  31 E10G16    30.00F
KALAMAZOO      PTSUNNY   81  48  31 VRB5      30.00F
LUDINGTON      SUNNY     76  56  50 NW9       29.99F
MARSHALL       SUNNY     81  44  27 E7        30.00F
MOUNT PLEASANT SUNNY     78  56  45 E12       30.03S
MUSKEGON       MOSUNNY   85  45  24 SE9       29.97F
SOUTH HAVEN    PTSUNNY   83  46  27 SE8       29.98R
$$
MIZ016>042-312300-
NORTHERN LOWER MICHIGAN

CITY           SKY/WX    TMP DP  RH WIND       PRES   REMARKS
ALPENA         SUNNY     64  45  49 SE12      30.11F
BEAVER ISLAND  MOSUNNY   66  47  50 E12       30.05F
BELLAIRE       SUNNY     82  45  27 NE9       30.00F
CADILLAC       MOSUNNY   79  54  41 SE12      30.02F
CHARLEVOIX     SUNNY     75  50  40 NE12      30.05F
FRANKFORT      SUNNY     78  56  47 N6        29.99F
GAYLORD        SUNNY     77  46  33 E10G16    30.05F
GRAYLING       MOSUNNY   79  54  41 SE14G20   30.05R
HARBOR SPRINGS SUNNY     72  48  42 NE14      30.06F
HOUGHTON LAKE  SUNNY     76  55  48 SE12      30.05S
MANISTEE       MOSUNNY   75  52  43 NW12      30.00S
OSCODA         SUNNY     61  44  53 E8        30.11F
PELLSTON       SUNNY     72  43  35 E15       30.07F
ROGERS CITY    SUNNY     61  47  61 E9        30.11F
TRAVERSE CITY  MOSUNNY   74  52  46 W5        29.99F
$$
MIZ007>008-015-312300-
EASTERN UPPER MICHIGAN

CITY           SKY/WX    TMP DP  RH WIND       PRES   REMARKS
KINROSS          N/A     70  46  43 S13G20    30.09R
MACKINAC ISLAN SUNNY     62  45  52 E13G18    30.09F
NEWBERRY       SUNNY     71  49  46 S14       30.06S
S. S. MARIE    SUNNY     71  48  43 SE12      30.07F
MUNISING         N/A     53  46  77 NE3       30.02F
$$
MIZ004>006-011>014-085-312300-
CENTRAL UPPER MICHIGAN

CITY           SKY/WX    TMP DP  RH WIND       PRES   REMARKS
MANISTIQUE     SUNNY     68  43  41 E12       30.04F
ESCANABA       PTSUNNY  N/A N/A N/A MISG        N/A
MENOMINEE        N/A    N/A N/A N/A MISG        N/A
SAWYER-GWINN   MOSUNNY   61  46  59 NE6       30.03F
$$
MIZ001>003-009>011-084-312300-
WESTERN UPPER MICHIGAN

CITY           SKY/WX    TMP DP  RH WIND       PRES   REMARKS
IRON MOUNTAIN  CLOUDY    68  44  42 SE13      29.98F
HOUGHTON       PTSUNNY   48  38  68 E20G28    29.97F
COPPER HARBOR    N/A     56  40  55 S10G17    29.99F
IRONWOOD       CLOUDY    72  55  56 SE7       29.85S
$$

ABBREVIATIONS USED IN REMARKS
   TC - TEMPERATURE IN CELSIUS
  WCI - WIND CHILL INDEX
   HX - HEAT INDEX
  VSB - VISIBILITY





USA.gov is the U.S. government's official web portal to all federal, state and local government web resources and services.